Home > Weather > Schaffhausen > Past weeks

Flag for Switzerland Past Weather in Schaffhausen, Schaffhausen, Switzerland — Yesterday and Last 2 Weeks

Now
69 °F

Passing clouds.


Feels Like: 69 °F
Forecast: 58 / 78 °F
Wind: 6 mph from South

Location: Zurich-Kloten

Current Time: Jul 25, 2016 at 12:27:54 AM

Latest Report: Jul 24, 2016 at 11:00 PM


Visibility: 16 mi

Pressure: 30.10 "Hg

Humidity: 81%

Dew Point: 63 °F

Location of SchaffhausenLocation

Past Weather in Schaffhausen — Graph

°F

Schaffhausen Temperature Yesterday

Maximum temperature yesterday: 80 °F (at 4:00 PM)
Minimum temperature yesterday: 62 °F (at 4:00 AM)
Average temperature yesterday: 71 °F

High & Low Weather Summary for the Past Weeks

 TemperatureHumidityPressure
High90 °F (Jul 20, 4:00 PM)100% (Jul 16, 6:00 AM)30.38 "Hg (Jul 16, 6:00 AM)
Low44 °F (Jul 16, 5:00 AM)30% (Jul 20, 7:00 PM)29.82 "Hg (Jul 10, 7:00 PM)
Average67 °F74%30.07 "Hg
* Reported Jul 9 11:00 PM — Jul 24 11:00 PM, Schaffhausen, Weather by CustomWeather, © 2016

Note: Actual official high and low records may vary slightly from our data, if they occured in-between our weather recording intervals... More about our weather records

Advertising

Schaffhausen Weather History for the Previous 24 Hours

Scroll right to see more
 ConditionsComfort  
Time TempWeatherWind HumidityBarometerVisibility
11:00 PM
Sun, Jul 24
69 °FPassing clouds.6 mph81%30.10 "Hg16 mi
10:00 PM70 °FMild.2 mph78%30.08 "HgN/A
9:00 PM72 °FMild.8 mph71%30.06 "HgN/A
8:00 PM74 °FScattered clouds.9 mph62%30.03 "Hg16 mi
7:00 PM77 °FMild.9 mph57%30.01 "HgN/A
6:00 PM80 °FWarm.10 mph53%30.00 "HgN/A
5:00 PM78 °FPartly sunny.5 mph50%30.01 "Hg22 mi
4:00 PM80 °FWarm.5 mph48%30.02 "HgN/A
3:00 PM80 °FWarm.6 mph52%30.03 "HgN/A
2:00 PM78 °FScattered clouds.5 mph57%30.04 "Hg16 mi
1:00 PM77 °FMild.3 mph58%30.05 "HgN/A
12:00 PM76 °FMild.5 mph66%30.06 "HgN/A
11:00 AM71 °FPassing clouds.3 mph69%30.08 "Hg12 mi
10:00 AM71 °FMild.3 mph75%30.09 "HgN/A
9:00 AM68 °FMild.2 mph79%30.10 "HgN/A
8:00 AM67 °FScattered clouds.3 mph83%30.10 "Hg9 mi
7:00 AM65 °FMild.3 mph90%30.10 "HgN/A
6:00 AM64 °FMild.3 mph92%30.10 "HgN/A
5:00 AM64 °FOvercast.No wind91%30.10 "Hg12 mi
4:00 AM62 °FCool.3 mph95%30.11 "HgN/A
3:00 AM64 °FMild.1 mph91%30.11 "HgN/A
2:00 AM64 °FPassing clouds.3 mph91%30.11 "Hg12 mi
1:00 AM68 °FMild.1 mph82%30.10 "HgN/A
12:00 AM68 °FMild.3 mph82%30.10 "HgN/A
Weather by CustomWeather, © 2016

See weather overviewHow to use our weather pages